THORAD AGENA D DEB, 42515

Orbit data source: Space-Track

THORAD AGENA D DEB, 42515 is space debris in SSO originally from a launch on Wed, 08 Apr 1970 UTC launched from the Air Force Western Test Range (AFWTR). Debris objects in space refer to the collection of defunct objects orbiting the Earth. Examples of debris include non-operational satellites, rocket bodies, and fragments generated from explosions, collisions, or faulty payload assembly.

Loading next visibility...
Identifier
42515, 1970-025RV
Orbit
SSO
Country
Flag of USUS
Related business
Manufacturer
Unknown
Mission
Spacecraft
Bus & Motor
Unknown
Mass
Unknown
Launch date (UTC)
1970-04-08 (56 years ago)
Launch vehicle
Unknown
Launch site
Air Force Western Test Range (AFWTR)
Object type
Payload
Rocket body
Debris
Shape & HBR
Unknown shape, 0.1 m
Radar Cross Section
Small (<0.1 m²)

Expand to show TLE details & history
Last TLE update: 2 days ago

TLE from 2 days ago
0 THORAD AGENA D DEB
1 42515U 70025RV  25286.58091502  .00000174  00000-0  32883-3 0  9993
2 42515  99.3677 226.8934 0041892   6.0691 354.0945 13.51408760586419
Epoch: 2025-10-13T13:56Z
TLE epoch observation values (Epoch: 2025-10-13T13:56:31.057Z)
Latitude
0.00001°
Longitude
-4.61765°
Altitude
1,038.85 km
Speed
7.348 km/s
True Right ascension
15h 07m 34s
True Declination
0° 00' 00"
Sunlit
Object was in daylight at epoch
Visualization orbit readout
Latitude
Unknown
Longitude
Unknown
Altitude
Unknown
Speed
Unknown
Apparent Right ascension
Unknown
Apparent Declination
Unknown
Sunlit
N/A
Visualization observer readout
Local Sidereal Time
02:55:29
Azimuth
Unknown
Elevation
Unknown
Doppler factor
Unknown
Orbital elements
Apogee altitude
1,095.541 km
Perigee altitude
1,033.184 km
Semi-major axis
7,442.5 km
Eccentricity
0.00419
Inclination
99.3677°
RAAN
226.8934°
Arg. of periapsis
6.0691°
True anomaly
354.04485°
Mean anomaly
354.0945°
Eccentric anomaly
354.0697°
Mean motion
3.38038 °/min
Orbital period
106.5 mins
BSTAR
0.00032883

Documentation

Showing up to 5 results
|